TimePST,TemperatureF,Dew PointF,Humidity,Sea Level PressureIn,VisibilityMPH,Wind Direction,Wind SpeedMPH,Gust SpeedMPH,PrecipitationIn,Events,Conditions,WindDirDegrees,DateUTC
12:55 AM,39.9,32.0,73,30.36,10.0,NW,4.6,-,N/A,,Overcast,320,2012-11-23 08:55:00
1:55 AM,39.9,32.0,73,30.35,10.0,West,5.8,-,N/A,,Mostly Cloudy,280,2012-11-23 09:55:00
2:55 AM,39.0,32.0,76,30.33,10.0,WNW,3.5,-,N/A,,Overcast,300,2012-11-23 10:55:00
3:55 AM,39.0,32.0,76,30.31,10.0,Calm,Calm,-,N/A,,Mostly Cloudy,0,2012-11-23 11:55:00
4:55 AM,37.9,32.0,79,30.29,10.0,Calm,Calm,-,N/A,,Mostly Cloudy,0,2012-11-23 12:55:00
5:55 AM,37.0,32.0,82,30.28,10.0,ENE,3.5,-,N/A,,Scattered Clouds,60,2012-11-23 13:55:00
6:55 AM,37.0,32.0,82,30.26,10.0,Calm,Calm,-,N/A,,Mostly Cloudy,0,2012-11-23 14:55:00
7:55 AM,37.0,32.0,82,30.25,10.0,Calm,Calm,-,N/A,,Scattered Clouds,0,2012-11-23 15:55:00
8:55 AM,37.9,33.1,83,30.25,10.0,North,-9999.0,-,N/A,,Mostly Cloudy,0,2012-11-23 16:55:00
9:25 AM,39.2,33.8,81,30.23,10.0,North,-9999.0,-,N/A,,Overcast,0,2012-11-23 17:25:00
9:55 AM,39.0,33.1,79,30.25,10.0,North,-9999.0,-,N/A,,Overcast,0,2012-11-23 17:55:00
10:55 AM,39.9,33.1,77,30.23,10.0,Calm,Calm,-,N/A,,Partly Cloudy,0,2012-11-23 18:55:00
11:28 AM,41.0,33.8,76,30.19,10.0,Calm,Calm,-,N/A,,Mostly Cloudy,0,2012-11-23 19:28:00
11:44 AM,41.0,33.8,76,30.18,10.0,Calm,Calm,-,N/A,,Scattered Clouds,0,2012-11-23 19:44:00
11:52 AM,41.0,33.8,76,30.18,10.0,Calm,Calm,-,N/A,,Mostly Cloudy,0,2012-11-23 19:52:00
11:55 AM,41.0,34.0,76,30.21,10.0,Calm,Calm,-,N/A,,Mostly Cloudy,0,2012-11-23 19:55:00
12:48 PM,41.0,32.0,70,30.15,10.0,SE,4.6,-,N/A,,Scattered Clouds,130,2012-11-23 20:48:00
12:55 PM,42.1,32.0,67,30.18,10.0,Calm,Calm,-,N/A,,Partly Cloudy,0,2012-11-23 20:55:00
1:13 PM,41.0,32.0,70,30.15,10.0,ESE,3.5,-,N/A,,Mostly Cloudy,120,2012-11-23 21:13:00
1:55 PM,41.0,32.0,70,30.17,10.0,ESE,3.5,-,N/A,,Overcast,110,2012-11-23 21:55:00
2:09 PM,41.0,33.8,76,30.15,10.0,East,4.6,-,0.00,Rain,Light Rain,100,2012-11-23 22:09:00
2:55 PM,39.9,33.1,77,30.14,10.0,ESE,9.2,-,0.00,,Overcast,120,2012-11-23 22:55:00
3:55 PM,39.9,34.0,79,30.15,10.0,ESE,3.5,-,0.01,Rain,Light Rain,120,2012-11-23 23:55:00
4:22 PM,39.2,33.8,81,30.12,10.0,East,3.5,-,0.00,Rain,Light Rain,90,2012-11-24 00:22:00
4:55 PM,39.9,34.0,79,30.14,10.0,Calm,Calm,-,0.01,Rain,Light Rain,0,2012-11-24 00:55:00
5:09 PM,39.2,33.8,81,30.08,9.0,ESE,3.5,-,0.01,Rain,Light Rain,120,2012-11-24 01:09:00
5:27 PM,39.2,35.6,87,30.09,10.0,NNE,3.5,-,0.01,,Overcast,30,2012-11-24 01:27:00
5:55 PM,39.0,35.1,86,30.14,8.0,Calm,Calm,-,0.02,Rain,Light Rain,0,2012-11-24 01:55:00
6:55 PM,39.0,35.1,86,30.11,10.0,East,4.6,-,0.00,Rain,Light Rain,90,2012-11-24 02:55:00
7:55 PM,39.0,35.1,86,30.09,10.0,ENE,3.5,-,0.00,Rain,Light Rain,60,2012-11-24 03:55:00
8:36 PM,39.2,35.6,87,30.06,10.0,East,3.5,-,0.01,Rain,Light Rain,80,2012-11-24 04:36:00
8:55 PM,37.9,35.1,89,30.07,10.0,Calm,Calm,-,0.01,Rain,Light Rain,0,2012-11-24 04:55:00
9:55 PM,37.9,35.1,89,30.07,9.0,Calm,Calm,-,0.00,,Clear,0,2012-11-24 05:55:00
10:12 PM,37.4,35.6,93,30.04,6.0,Calm,Calm,-,N/A,,Scattered Clouds,0,2012-11-24 06:12:00
10:24 PM,37.4,35.6,93,30.04,6.0,Calm,Calm,-,N/A,,Mostly Cloudy,0,2012-11-24 06:24:00
10:46 PM,37.4,35.6,93,30.04,2.0,Calm,Calm,-,N/A,,Scattered Clouds,0,2012-11-24 06:46:00
10:55 PM,37.9,36.0,93,30.06,2.0,Calm,Calm,-,N/A,,Partly Cloudy,0,2012-11-24 06:55:00
11:03 PM,37.4,33.8,87,30.04,1.2,Calm,Calm,-,N/A,,Partly Cloudy,0,2012-11-24 07:03:00
11:13 PM,37.4,33.8,87,30.04,3.0,NNE,3.5,-,N/A,,Partly Cloudy,30,2012-11-24 07:13:00
11:55 PM,37.9,34.0,86,30.06,6.0,Calm,Calm,-,N/A,,Clear,0,2012-11-24 07:55:00